OK2ILA-1 Weather Reports


Display with metric or nautical units.
time (UTC)temp
F
wind
direction
speed
MPH
gust
MPH
rain 1hr
in
rain 24hr
in
rain mn
in
humidity
%
barometer
mb
20260507085329 71 170 8.0 15.0 0.00 0.00 0.00 100 1011.9
20260507084128 70 195 6.0 12.0 0.00 0.00 0.00 100 1011.8
20260507082927 70 216 4.0 12.0 0.00 0.00 0.00 100 1011.7
20260507081727 70 225 6.0 13.0 0.00 0.00 0.00 100 1011.6
20260507080526 69 248 9.0 14.0 0.00 0.00 0.00 100 1011.5
20260507075325 68 209 7.0 8.0 0.00 0.00 0.00 100 1011.5
20260507074125 68 209 4.0 11.0 0.00 0.00 0.00 100 1011.3
20260507072924 67 201 3.0 9.0 0.00 0.00 0.00 100 1011.3
20260507071723 65 189 10.0 12.0 0.00 0.00 0.00 100 1011.3
20260507070523 64 189 5.0 10.0 0.00 0.00 0.00 100 1011.2
20260507065322 63 187 8.0 11.0 0.00 0.00 0.00 100 1011.2
20260507064121 62 192 9.0 12.0 0.00 0.00 0.00 100 1011.1
20260507062921 62 202 5.0 9.0 0.00 0.00 0.00 100 1010.9
20260507061720 61 182 5.0 8.0 0.00 0.00 0.00 100 1010.9
20260507060519 61 149 2.0 4.0 0.00 0.00 0.00 100 1010.8
20260507055319 61 168 0.0 1.0 0.00 0.00 0.00 100 1010.7
20260507054118 60 151 1.0 3.0 0.00 0.00 0.00 100 1010.6
20260507052917 60 135 1.0 1.0 0.00 0.00 0.00 100 1010.4
20260507051717 59 147 0.0 2.0 0.00 0.00 0.00 100 1010.3
20260507050516 58 212 1.0 1.0 0.00 0.00 0.00 100 1010.3
20260507045315 58 199 0.0 3.0 0.00 0.00 0.00 100 1010.3
20260507044115 58 254 1.0 3.0 0.00 0.00 0.00 100 1010.0
20260507042914 57 258 0.0 0.0 0.00 0.00 0.00 100 1009.8
20260507041713 57 282 2.0 2.0 0.00 0.00 0.00 100 1009.6
20260507040512 57 146 0.0 0.0 0.00 0.00 0.00 100 1009.6
20260507035312 57 146 0.0 1.0 0.00 0.00 0.00 100 1009.4
20260507034111 57 125 0.0 0.0 0.00 0.00 0.00 100 1009.2
20260507032910 57 125 0.0 0.0 0.00 0.00 0.00 100 1009.1
20260507031710 57 125 0.0 1.0 0.00 0.00 0.00 100 1009.1
20260507030509 56 144 0.0 2.0 0.00 0.00 0.00 100 1009.1
20260507025308 56 171 3.0 3.0 0.00 0.00 0.00 100 1009.0
20260507024108 56 156 1.0 3.0 0.00 0.00 0.00 100 1008.9
20260507022907 56 147 0.0 3.0 0.00 0.00 0.00 100 1008.8
20260507021706 56 163 2.0 5.0 0.00 0.00 0.00 100 1008.5
20260507020506 56 338 5.0 8.0 0.00 0.00 0.00 100 1008.4
20260507015306 55 322 6.0 7.0 0.00 0.00 0.00 100 1008.4
20260507014104 55 312 6.0 7.0 0.00 0.00 0.00 100 1008.3
20260507012904 56 351 0.0 3.0 0.00 0.00 0.00 100 1008.2
20260507011703 56 154 0.0 1.0 0.00 0.00 0.00 100 1008.2
20260507010502 56 171 2.0 3.0 0.00 0.00 0.00 100 1008.0
20260507005305 57 262 2.0 2.0 0.00 0.00 0.00 100 1008.1
20260507004101 57 271 0.0 0.0 0.00 0.00 0.00 100 1008.1
20260507002900 57 299 1.0 2.0 0.00 0.00 0.00 100 1008.0
20260507001700 58 94 1.0 3.0 0.00 0.00 0.00 100 1007.9
20260507000459 58 74 2.0 3.0 0.00 0.00 0.00 100 1007.9
20260506235258 58 112 0.0 3.0 0.00 0.00 0.00 100 1008.3
20260506234057 58 320 2.0 7.0 0.00 0.00 0.00 100 1008.1
20260506232857 59 26 2.0 6.0 0.00 0.00 0.00 100 1008.0
20260506231656 59 357 3.0 9.0 0.00 0.00 0.00 100 1007.9
20260506230455 60 12 4.0 9.0 0.00 0.00 0.00 100 1008.0
20260506225255 60 337 5.0 9.0 0.00 0.00 0.00 100 1008.0
20260506224054 61 336 7.0 10.0 0.00 0.00 0.00 100 1007.9
20260506222853 65 284 1.0 5.0 0.00 0.00 0.00 100 1007.9
20260506221653 64 165 6.0 9.0 0.00 0.00 0.00 100 1007.8
20260506220452 64 185 5.0 11.0 0.00 0.00 0.00 100 1007.7
20260506215252 64 192 6.0 9.0 0.00 0.00 0.00 100 1007.6
20260506214051 64 161 9.0 15.0 0.00 0.00 0.00 100 1007.5
20260506212850 64 184 8.0 14.0 0.00 0.00 0.00 100 1007.5
20260506211649 65 149 11.0 11.0 0.00 0.00 0.00 100 1007.5
20260506210449 66 195 7.0 9.0 0.00 0.00 0.00 100 1007.4
20260506205248 66 189 6.0 12.0 0.00 0.00 0.00 100 1007.3
20260506204047 67 157 11.0 15.0 0.00 0.00 0.00 100 1007.3
20260506202847 67 188 9.0 16.0 0.00 0.00 0.00 100 1007.2
20260506201646 67 195 9.0 11.0 0.00 0.00 0.00 100 1007.3
20260506200445 67 160 7.0 13.0 0.00 0.00 0.00 100 1007.1
20260506195245 67 185 7.0 13.0 0.00 0.00 0.00 100 1007.1
20260506194044 67 158 4.0 9.0 0.00 0.00 0.00 100 1007.0
20260506192843 67 143 5.0 8.0 0.00 0.00 0.00 100 1007.0
20260506191643 67 180 5.0 7.0 0.00 0.00 0.00 100 1007.0
20260506191245 67 147 5.0 5.0 0.00 0.00 0.00 100 1006.8
20260506190442 68 165 5.0 8.0 0.00 0.00 0.00 100 1006.7
20260506185241 68 135 7.0 12.0 0.00 0.00 0.00 100 1006.6
20260506184040 68 144 5.0 16.0 0.00 0.00 0.00 100 1006.4
20260506182840 69 137 8.0 16.0 0.00 0.00 0.00 100 1006.2
20260506181639 69 153 14.0 15.0 0.00 0.00 0.00 100 1006.2
20260506180438 70 156 10.0 18.0 0.00 0.00 0.00 100 1006.2
20260506175238 70 153 11.0 19.0 0.00 0.00 0.00 100 1006.2
20260506174037 71 135 10.0 21.0 0.00 0.00 0.00 100 1006.2
20260506172836 71 150 14.0 20.0 0.00 0.00 0.00 100 1006.2
20260506171636 72 157 11.0 19.0 0.00 0.00 0.00 100 1006.3
20260506170435 72 178 11.0 23.0 0.00 0.00 0.00 100 1006.5
20260506165234 73 182 17.0 25.0 0.00 0.00 0.00 100 1006.4
20260506164034 73 199 15.0 22.0 0.00 0.00 0.00 100 1006.4
20260506162833 74 203 14.0 18.0 0.00 0.00 0.00 100 1006.5
20260506161632 74 160 17.0 21.0 0.00 0.00 0.00 100 1006.7
20260506160432 75 154 12.0 17.0 0.00 0.00 0.00 100 1006.8
20260506155231 75 188 7.0 13.0 0.00 0.00 0.00 100 1007.1
20260506154030 73 165 9.0 12.0 0.00 0.00 0.00 100 1007.4
20260506152830 73 146 12.0 17.0 0.00 0.00 0.00 100 1007.4
20260506151629 74 191 7.0 13.0 0.00 0.00 0.00 100 1007.4
20260506150428 75 181 10.0 14.0 0.00 0.00 0.00 100 1007.5
20260506145227 75 194 7.0 11.0 0.00 0.00 0.00 100 1007.7
20260506144027 74 184 7.0 15.0 0.00 0.00 0.00 100 1007.8
20260506142826 74 187 9.0 15.0 0.00 0.00 0.00 100 1007.8
20260506141625 75 188 6.0 13.0 0.00 0.00 0.00 100 1007.9
20260506140425 76 170 16.0 20.0 0.00 0.00 0.00 100 1007.9
20260506135224 75 212 9.0 17.0 0.00 0.00 0.00 100 1008.0
20260506134023 77 175 10.0 17.0 0.00 0.00 0.00 100 1008.1
20260506132823 75 201 8.0 17.0 0.00 0.00 0.00 100 1008.2
20260506131622 75 226 11.0 17.0 0.00 0.00 0.00 100 1008.3
20260506130421 78 215 10.0 16.0 0.00 0.00 0.00 100 1008.3
20260506125221 78 177 11.0 24.0 0.00 0.00 0.00 100 1008.2
20260506124020 78 149 16.0 19.0 0.00 0.00 0.00 100 1008.4
20260506122819 77 171 5.0 16.0 0.00 0.00 0.00 100 1008.5
20260506121619 77 180 9.0 15.0 0.00 0.00 0.00 100 1008.4
20260506120418 76 168 14.0 17.0 0.00 0.00 0.00 100 1008.5
20260506115217 77 189 11.0 21.0 0.00 0.00 0.00 100 1008.4
20260506114017 75 185 10.0 21.0 0.00 0.00 0.00 100 1008.5
20260506112816 76 161 17.0 20.0 0.00 0.00 0.00 100 1008.5
20260506111615 76 223 14.0 21.0 0.00 0.00 0.00 100 1008.6
20260506110415 76 180 10.0 20.0 0.00 0.00 0.00 100 1008.6
20260506105214 76 187 17.0 25.0 0.00 0.00 0.00 100 1008.5
20260506104013 76 163 18.0 21.0 0.00 0.00 0.00 100 1008.4
20260506102813 75 185 14.0 23.0 0.00 0.00 0.00 100 1008.6
20260506101612 75 188 9.0 18.0 0.00 0.00 0.00 100 1008.7
20260506100411 73 178 15.0 19.0 0.00 0.00 0.00 100 1008.8
20260506095210 74 192 14.0 16.0 0.00 0.00 0.00 100 1009.0
20260506094010 74 175 16.0 17.0 0.00 0.00 0.00 100 1009.0
20260506092809 71 246 8.0 15.0 0.00 0.00 0.00 100 1009.1
20260506091608 71 219 10.0 16.0 0.00 0.00 0.00 100 1009.0
20260506090408 72 225 7.0 20.0 0.00 0.00 0.00 100 1009.0